Huntsville, AL

11:28 PM CST on December 11, 2017 (GMT -0600)
Huntsville International

Weather History for KHSV - May, 2014

Change the Weather History Date:

Friday, May 23, 2014

  Actual Average Record
Temperature  
Mean Temperature 77 °F 72 °F  
Max Temperature 89 °F 83 °F 95 °F (2010)
Min Temperature 65 °F 61 °F 45 °F (1954)
Degree Days  
Heating Degree Days 0 0  
Month to date heating degree days 38 25  
Since 1 July heating degree days 3463 2999  
Cooling Degree Days 12 8  
Month to date cooling degree days 132 122  
Year to date cooling degree days 175 194  
Growing Degree Days 26 (Base 50)    
Moisture  
Dew Point 64 °F    
Average Humidity 70    
Maximum Humidity 100    
Minimum Humidity 39    
Precipitation  
Precipitation 0.00 in 0.15 in 1.85 in (1930)
Month to date precipitation 2.14 3.89  
Year to date precipitation 22.81 23.15  
Snow  
Snow 0.00 in - - ()
Month to date snowfall 0.0  
Since 1 July snowfall 5.2  
Snow Depth 0.00 in    
Sea Level Pressure  
Sea Level Pressure 30.07 in    
Wind  
Wind Speed 3 mph (WNW)    
Max Wind Speed 13 mph    
Max Gust Speed 21 mph    
Visibility 9 miles    
Events      
T = Trace of Precipitation, MM = Missing Value Source: NWS Daily Summary

Daily Weather History Graph

Daily Weather History Graph

Search for Another Location

Airport or City:

Trip Planner

Search our weather history database for the weather conditions in past years. The results will help you decide how hot, cold, wet, or windy it might be!

Date:

Astronomy

May. 23, 2014 Rise Set
Actual Time 5:39 AM CDT 7:48 PM CDT
Civil Twilight 5:10 AM CDT 8:17 PM CDT
Nautical Twilight 4:35 AM CDT 8:52 PM CDT
Astronomical Twilight 3:58 AM CDT 9:30 PM CDT
Moon 2:19 AM CDT (5/23) 2:53 PM CDT (5/23)
Length of Visible Light 15h 06m
Length of Day
14h 09m
Waning Crescent, 27% of the Moon is Illuminated
May 23
Waning Crescent
May 28
New
Jun 5
First Quarter
Jun 12
Full
Jun 19
Last Quarter

Hourly Weather History & Observations

Time (CDT) Temp. Heat Index Dew Point Humidity Pressure Visibility Wind Dir Wind Speed Gust Speed Precip Events Conditions
12:53 AM 71.1 °F - 66.0 °F 84% 30.06 in 10.0 mi Calm Calm - N/A   Clear
1:53 AM 68.0 °F - 64.9 °F 90% 30.06 in 9.0 mi Calm Calm - N/A   Clear
2:53 AM 68.0 °F - 64.9 °F 90% 30.06 in 8.0 mi Calm Calm - N/A   Clear
3:53 AM 66.0 °F - 64.0 °F 93% 30.07 in 4.0 mi Calm Calm - N/A   Clear
4:53 AM 66.9 °F - 64.9 °F 93% 30.07 in 6.0 mi Calm Calm - N/A   Clear
5:53 AM 64.9 °F - 64.0 °F 97% 30.08 in 5.0 mi Calm Calm - N/A   Scattered Clouds
6:53 AM 68.0 °F - 64.9 °F 90% 30.10 in 6.0 mi Calm Calm - N/A   Mostly Cloudy
7:53 AM 73.0 °F - 66.0 °F 79% 30.10 in 8.0 mi Calm Calm - N/A   Scattered Clouds
8:53 AM 77.0 °F - 64.9 °F 66% 30.10 in 10.0 mi NW 4.6 mph - N/A   Clear
9:53 AM 80.1 °F 82.1 °F 66.0 °F 62% 30.09 in 10.0 mi WNW 4.6 mph - N/A   Clear
10:53 AM 82.9 °F 85.0 °F 66.0 °F 56% 30.09 in 10.0 mi West 5.8 mph - N/A   Scattered Clouds
11:53 AM 84.9 °F 86.1 °F 64.0 °F 49% 30.09 in 10.0 mi Variable 5.8 mph - N/A   Mostly Cloudy
12:53 PM 84.9 °F 85.9 °F 63.0 °F 48% 30.08 in 10.0 mi NW 5.8 mph - N/A   Mostly Cloudy
1:53 PM 88.0 °F 88.7 °F 63.0 °F 43% 30.06 in 10.0 mi West 6.9 mph - N/A   Mostly Cloudy
2:53 PM 88.0 °F 88.7 °F 63.0 °F 43% 30.06 in 10.0 mi WNW 8.1 mph - N/A   Scattered Clouds
3:53 PM 88.0 °F 88.4 °F 62.1 °F 42% 30.04 in 10.0 mi West 8.1 mph - N/A   Scattered Clouds
4:53 PM 87.1 °F 86.5 °F 59.0 °F 39% 30.04 in 10.0 mi WNW 8.1 mph - N/A   Scattered Clouds
5:53 PM 86.0 °F 86.1 °F 61.0 °F 43% 30.03 in 10.0 mi WNW 9.2 mph - N/A   Scattered Clouds
6:53 PM 82.0 °F 82.7 °F 61.0 °F 49% 30.03 in 10.0 mi West 4.6 mph - N/A   Scattered Clouds
7:53 PM 77.0 °F - 62.1 °F 60% 30.03 in 10.0 mi West 5.8 mph - N/A   Scattered Clouds
8:53 PM 75.0 °F - 62.1 °F 64% 30.04 in 10.0 mi Calm Calm - N/A   Partly Cloudy
9:53 PM 72.0 °F - 62.1 °F 71% 30.05 in 10.0 mi Calm Calm - N/A   Partly Cloudy
10:53 PM 71.1 °F - 63.0 °F 75% 30.05 in 10.0 mi Calm Calm - N/A   Partly Cloudy
11:53 PM 69.8 °F - 62.6 °F 78% 30.07 in 10.0 mi Calm Calm - N/A   Partly Cloudy